Time,TemperatureF,DewpointF,PressureIn,WindDirection,WindDirectionDegrees,WindSpeedMPH,WindSpeedGustMPH,Humidity,HourlyPrecipIn,Conditions,Clouds,dailyrainin,SoftwareType,DateUTC
2013-06-16 00:04:00,59.2,48.2,29.70,West,270,1.1,-999.0,67,-99.99,,,0.00,Acu-Link.com,2013-06-16 07:04:00,
2013-06-16 00:20:00,58.8,47.9,29.70,ESE,112,2.7,-999.0,67,-99.99,,,0.00,Acu-Link.com,2013-06-16 07:20:00,
2013-06-16 00:35:00,58.5,48.0,29.70,ESE,112,1.1,-999.0,68,-99.99,,,0.00,Acu-Link.com,2013-06-16 07:35:00,
2013-06-16 00:50:00,58.5,48.4,29.70,West,270,0.0,-999.0,69,-99.99,,,0.00,Acu-Link.com,2013-06-16 07:50:00,
2013-06-16 01:05:00,58.3,47.8,29.70,NNW,337,2.7,-999.0,68,-99.99,,,0.00,Acu-Link.com,2013-06-16 08:05:00,
2013-06-16 01:20:00,57.6,47.9,29.70,West,270,0.0,-999.0,70,-99.99,,,0.00,Acu-Link.com,2013-06-16 08:20:00,
2013-06-16 01:36:00,57.2,47.9,29.71,SSW,202,1.1,-999.0,71,-99.99,,,0.00,Acu-Link.com,2013-06-16 08:36:00,
2013-06-16 01:51:00,56.3,48.1,29.71,WNW,292,1.7,-999.0,74,-99.99,,,0.00,Acu-Link.com,2013-06-16 08:51:00,
2013-06-16 02:06:00,55.9,47.7,29.71,SW,225,0.0,-999.0,74,-99.99,,,0.00,Acu-Link.com,2013-06-16 09:06:00,
2013-06-16 02:21:00,55.4,48.0,29.71,SSE,157,0.0,-999.0,76,-99.99,,,0.00,Acu-Link.com,2013-06-16 09:21:00,
2013-06-16 02:37:00,55.0,47.6,29.71,NNW,337,0.0,-999.0,76,-99.99,,,0.00,Acu-Link.com,2013-06-16 09:37:00,
2013-06-16 02:52:00,55.0,47.6,29.71,South,180,0.0,-999.0,76,-99.99,,,0.00,Acu-Link.com,2013-06-16 09:52:00,
2013-06-16 03:07:00,54.5,47.8,29.72,West,270,0.0,-999.0,78,-99.99,,,0.00,Acu-Link.com,2013-06-16 10:07:00,
2013-06-16 03:22:00,54.3,47.2,29.72,WSW,247,0.0,-999.0,77,-99.99,,,0.00,Acu-Link.com,2013-06-16 10:22:00,
2013-06-16 03:38:00,54.3,46.9,29.72,South,180,2.2,-999.0,76,-99.99,,,0.00,Acu-Link.com,2013-06-16 10:38:00,
2013-06-16 03:53:00,53.6,46.9,29.72,NE,45,1.7,-999.0,78,-99.99,,,0.00,Acu-Link.com,2013-06-16 10:53:00,
2013-06-16 04:08:00,52.9,46.6,29.73,NE,45,1.7,-999.0,79,-99.99,,,0.00,Acu-Link.com,2013-06-16 11:08:00,
2013-06-16 04:24:00,53.1,46.8,29.73,West,270,0.0,-999.0,79,-99.99,,,0.00,Acu-Link.com,2013-06-16 11:24:00,
2013-06-16 04:39:00,53.6,47.6,29.73,SSW,202,1.1,-999.0,80,-99.99,,,0.00,Acu-Link.com,2013-06-16 11:39:00,
2013-06-16 04:54:00,53.8,47.4,29.74,SW,225,2.7,-999.0,79,-99.99,,,0.00,Acu-Link.com,2013-06-16 11:54:00,
2013-06-16 05:09:00,53.2,47.2,29.74,SW,225,1.1,-999.0,80,-99.99,,,0.00,Acu-Link.com,2013-06-16 12:09:00,
2013-06-16 05:25:00,53.2,47.5,29.75,WNW,292,1.7,-999.0,81,-99.99,,,0.00,Acu-Link.com,2013-06-16 12:25:00,
2013-06-16 05:40:00,53.8,47.4,29.75,NW,315,4.7,-999.0,79,-99.99,,,0.00,Acu-Link.com,2013-06-16 12:40:00,
2013-06-16 05:55:00,53.8,46.8,29.75,West,270,2.2,-999.0,77,-99.99,,,0.00,Acu-Link.com,2013-06-16 12:55:00,
2013-06-16 06:11:00,53.6,46.6,29.76,NE,45,0.0,-999.0,77,-99.99,,,0.00,Acu-Link.com,2013-06-16 13:11:00,
2013-06-16 06:26:00,54.7,46.9,29.76,WSW,247,1.7,-999.0,75,-99.99,,,0.00,Acu-Link.com,2013-06-16 13:26:00,
2013-06-16 06:41:00,56.3,47.4,29.76,WSW,247,2.2,-999.0,72,-99.99,,,0.00,Acu-Link.com,2013-06-16 13:41:00,
2013-06-16 06:56:00,58.3,47.4,29.76,WNW,292,1.1,-999.0,67,-99.99,,,0.00,Acu-Link.com,2013-06-16 13:56:00,
2013-06-16 07:12:00,60.6,48.8,29.76,SE,135,1.1,-999.0,65,-99.99,,,0.00,Acu-Link.com,2013-06-16 14:12:00,
2013-06-16 07:27:00,63.0,49.3,29.77,NW,315,1.1,-999.0,61,-99.99,,,0.00,Acu-Link.com,2013-06-16 14:27:00,
2013-06-16 07:42:00,65.5,49.9,29.77,ESE,112,1.1,-999.0,57,-99.99,,,0.00,Acu-Link.com,2013-06-16 14:42:00,
2013-06-16 07:57:00,67.8,50.5,29.77,ESE,112,1.1,-999.0,54,-99.99,,,0.00,Acu-Link.com,2013-06-16 14:57:00,
2013-06-16 08:13:00,70.5,51.0,29.78,ESE,112,0.0,-999.0,50,-99.99,,,0.00,Acu-Link.com,2013-06-16 15:13:00,
2013-06-16 08:28:00,68.9,51.1,29.78,West,270,1.1,-999.0,53,-99.99,,,0.00,Acu-Link.com,2013-06-16 15:28:00,
2013-06-16 08:43:00,70.9,52.4,29.79,South,180,1.7,-999.0,52,-99.99,,,0.00,Acu-Link.com,2013-06-16 15:43:00,
2013-06-16 08:59:00,70.7,52.7,29.79,NNE,22,1.7,-999.0,53,-99.99,,,0.00,Acu-Link.com,2013-06-16 15:59:00,
2013-06-16 09:14:00,71.4,52.3,29.79,SSE,157,4.7,-999.0,51,-99.99,,,0.00,Acu-Link.com,2013-06-16 16:14:00,
2013-06-16 09:29:00,73.0,52.7,29.79,SSW,202,3.7,-999.0,49,-99.99,,,0.00,Acu-Link.com,2013-06-16 16:29:00,
2013-06-16 09:45:00,75.4,52.0,29.79,West,270,2.2,-999.0,44,-99.99,,,0.00,Acu-Link.com,2013-06-16 16:45:00,
2013-06-16 10:00:00,78.6,51.6,29.79,NNE,22,1.7,-999.0,39,-99.99,,,0.00,Acu-Link.com,2013-06-16 17:00:00,
2013-06-16 10:15:00,77.9,52.9,29.79,North,0,2.2,-999.0,42,-99.99,,,0.00,Acu-Link.com,2013-06-16 17:15:00,
2013-06-16 10:30:00,77.0,52.1,29.79,NNW,337,1.7,-999.0,42,-99.99,,,0.00,Acu-Link.com,2013-06-16 17:30:00,
2013-06-16 10:46:00,78.4,52.7,29.79,WNW,292,2.7,-999.0,41,-99.99,,,0.00,Acu-Link.com,2013-06-16 17:46:00,
2013-06-16 11:01:00,79.2,53.4,29.80,ENE,67,3.2,-999.0,41,-99.99,,,0.00,Acu-Link.com,2013-06-16 18:01:00,
2013-06-16 11:16:00,81.5,54.1,29.79,WSW,247,3.7,-999.0,39,-99.99,,,0.00,Acu-Link.com,2013-06-16 18:16:00,
2013-06-16 11:31:00,82.6,54.4,29.80,East,90,2.2,-999.0,38,-99.99,,,0.00,Acu-Link.com,2013-06-16 18:31:00,
2013-06-16 11:47:00,82.6,53.7,29.80,SSE,157,2.2,-999.0,37,-99.99,,,0.00,Acu-Link.com,2013-06-16 18:47:00,
2013-06-16 12:02:00,82.4,54.2,29.80,West,270,2.2,-999.0,38,-99.99,,,0.00,Acu-Link.com,2013-06-16 19:02:00,
2013-06-16 12:17:00,82.8,53.1,29.80,NW,315,5.3,-999.0,36,-99.99,,,0.00,Acu-Link.com,2013-06-16 19:17:00,
2013-06-16 12:32:00,83.7,53.9,29.80,West,270,5.3,-999.0,36,-99.99,,,0.00,Acu-Link.com,2013-06-16 19:32:00,
2013-06-16 12:47:00,84.4,56.0,29.79,East,90,3.2,-999.0,38,-99.99,,,0.00,Acu-Link.com,2013-06-16 19:47:00,
2013-06-16 13:03:00,85.8,55.7,29.79,WNW,292,2.2,-999.0,36,-99.99,,,0.00,Acu-Link.com,2013-06-16 20:03:00,
2013-06-16 13:18:00,86.2,55.3,29.78,East,90,4.7,-999.0,35,-99.99,,,0.00,Acu-Link.com,2013-06-16 20:18:00,
2013-06-16 13:33:00,85.8,55.0,29.79,SSW,202,2.2,-999.0,35,-99.99,,,0.00,Acu-Link.com,2013-06-16 20:33:00,
2013-06-16 13:48:00,87.1,55.3,29.78,South,180,4.7,-999.0,34,-99.99,,,0.00,Acu-Link.com,2013-06-16 20:48:00,
2013-06-16 14:04:00,88.2,57.1,29.78,South,180,3.7,-999.0,35,-99.99,,,0.00,Acu-Link.com,2013-06-16 21:04:00,
2013-06-16 14:19:00,87.6,55.7,29.78,ESE,112,2.7,-999.0,34,-99.99,,,0.00,Acu-Link.com,2013-06-16 21:19:00,
2013-06-16 14:34:00,87.8,55.9,29.78,ESE,112,5.3,-999.0,34,-99.99,,,0.00,Acu-Link.com,2013-06-16 21:34:00,
2013-06-16 14:49:00,86.9,55.9,29.78,SW,225,4.2,-999.0,35,-99.99,,,0.00,Acu-Link.com,2013-06-16 21:49:00,
2013-06-16 15:04:00,86.0,56.7,29.78,WNW,292,6.3,-999.0,37,-99.99,,,0.00,Acu-Link.com,2013-06-16 22:04:00,
2013-06-16 15:19:00,85.8,55.0,29.77,NNW,337,4.7,-999.0,35,-99.99,,,0.00,Acu-Link.com,2013-06-16 22:19:00,
2013-06-16 15:35:00,86.4,54.7,29.78,ESE,112,4.7,-999.0,34,-99.99,,,0.00,Acu-Link.com,2013-06-16 22:35:00,
2013-06-16 15:50:00,85.5,53.9,29.77,SW,225,4.7,-999.0,34,-99.99,,,0.00,Acu-Link.com,2013-06-16 22:50:00,
2013-06-16 16:05:00,86.7,54.9,29.77,NNW,337,5.8,-999.0,34,-99.99,,,0.00,Acu-Link.com,2013-06-16 23:05:00,
2013-06-16 16:21:00,85.3,53.7,29.77,NW,315,7.8,-999.0,34,-99.99,,,0.00,Acu-Link.com,2013-06-16 23:21:00,
2013-06-16 16:36:00,85.1,53.5,29.77,South,180,4.2,-999.0,34,-99.99,,,0.00,Acu-Link.com,2013-06-16 23:36:00,
2013-06-16 16:51:00,85.6,54.0,29.77,WNW,292,3.7,-999.0,34,-99.99,,,0.00,Acu-Link.com,2013-06-16 23:51:00,
2013-06-16 17:06:00,86.0,51.8,29.76,West,270,6.8,-999.0,31,-99.99,,,0.00,Acu-Link.com,2013-06-17 00:06:00,
2013-06-16 17:21:00,86.9,51.7,29.76,NW,315,5.8,-999.0,30,-99.99,,,0.00,Acu-Link.com,2013-06-17 00:21:00,
2013-06-16 17:37:00,85.6,49.7,29.77,SSW,202,6.3,-999.0,29,-99.99,,,0.00,Acu-Link.com,2013-06-17 00:37:00,
2013-06-16 17:52:00,83.8,49.0,29.75,East,90,5.8,-999.0,30,-99.99,,,0.00,Acu-Link.com,2013-06-17 00:52:00,
2013-06-16 18:07:00,83.5,48.8,29.75,South,180,2.7,-999.0,30,-99.99,,,0.00,Acu-Link.com,2013-06-17 01:07:00,
2013-06-16 18:22:00,83.3,49.5,29.75,West,270,3.7,-999.0,31,-99.99,,,0.00,Acu-Link.com,2013-06-17 01:22:00,
2013-06-16 18:38:00,82.8,50.7,29.75,West,270,3.7,-999.0,33,-99.99,,,0.00,Acu-Link.com,2013-06-17 01:38:00,
2013-06-16 18:53:00,81.3,50.2,29.75,West,270,2.7,-999.0,34,-99.99,,,0.00,Acu-Link.com,2013-06-17 01:53:00,
2013-06-16 19:08:00,76.3,52.8,29.75,West,270,6.8,-999.0,44,-99.99,,,0.00,Acu-Link.com,2013-06-17 02:08:00,
2013-06-16 19:23:00,75.9,50.5,29.75,WNW,292,2.2,-999.0,41,-99.99,,,0.00,Acu-Link.com,2013-06-17 02:23:00,
2013-06-16 19:38:00,71.8,52.1,29.76,NW,315,3.2,-999.0,50,-99.99,,,0.00,Acu-Link.com,2013-06-17 02:38:00,
2013-06-16 19:53:00,72.7,48.9,29.76,NW,315,4.2,-999.0,43,-99.99,,,0.00,Acu-Link.com,2013-06-17 02:53:00,
2013-06-16 20:09:00,69.6,50.1,29.76,WNW,292,3.2,-999.0,50,-99.99,,,0.00,Acu-Link.com,2013-06-17 03:09:00,
2013-06-16 20:24:00,70.5,49.3,29.75,WNW,292,3.7,-999.0,47,-99.99,,,0.00,Acu-Link.com,2013-06-17 03:24:00,
2013-06-16 20:39:00,71.2,48.8,29.76,SSW,202,4.2,-999.0,45,-99.99,,,0.00,Acu-Link.com,2013-06-17 03:39:00,
2013-06-16 20:55:00,70.0,48.3,29.76,West,270,4.7,-999.0,46,-99.99,,,0.00,Acu-Link.com,2013-06-17 03:55:00,
2013-06-16 21:10:00,68.9,48.9,29.76,NNW,337,2.7,-999.0,49,-99.99,,,0.00,Acu-Link.com,2013-06-17 04:10:00,
2013-06-16 21:25:00,68.9,48.4,29.76,ESE,112,2.7,-999.0,48,-99.99,,,0.00,Acu-Link.com,2013-06-17 04:25:00,
2013-06-16 21:40:00,68.7,48.2,29.77,NNE,22,1.7,-999.0,48,-99.99,,,0.00,Acu-Link.com,2013-06-17 04:40:00,
2013-06-16 21:56:00,66.9,48.2,29.77,NNW,337,5.8,-999.0,51,-99.99,,,0.00,Acu-Link.com,2013-06-17 04:56:00,
2013-06-16 22:11:00,66.4,47.7,29.77,West,270,3.7,-999.0,51,-99.99,,,0.00,Acu-Link.com,2013-06-17 05:11:00,
2013-06-16 22:26:00,66.0,47.9,29.77,East,90,5.3,-999.0,52,-99.99,,,0.00,Acu-Link.com,2013-06-17 05:26:00,
2013-06-16 22:42:00,65.8,47.7,29.77,West,270,4.2,-999.0,52,-99.99,,,0.00,Acu-Link.com,2013-06-17 05:42:00,
2013-06-16 22:57:00,66.7,47.5,29.77,SSW,202,3.2,-999.0,50,-99.99,,,0.00,Acu-Link.com,2013-06-17 05:57:00,
2013-06-16 23:12:00,66.9,47.1,29.78,South,180,0.0,-999.0,49,-99.99,,,0.00,Acu-Link.com,2013-06-17 06:12:00,
2013-06-16 23:27:00,64.9,47.9,29.77,WNW,292,2.2,-999.0,54,-99.99,,,0.00,Acu-Link.com,2013-06-17 06:27:00,
2013-06-16 23:42:00,64.4,47.4,29.78,NNE,22,1.7,-999.0,54,-99.99,,,0.00,Acu-Link.com,2013-06-17 06:42:00,
2013-06-16 23:57:00,63.5,47.5,29.78,South,180,1.7,-999.0,56,-99.99,,,0.00,Acu-Link.com,2013-06-17 06:57:00,